Weather History for KLNR - October, 2013

Change the Weather History Date:

Wednesday, October 30, 2013

  Actual Average Record
Temperature  
Mean Temperature 50 °F -  
Max Temperature 55 °F 51 °F 69 °F (2007)
Min Temperature 44 °F 34 °F 27 °F (2008)
Degree Days  
Heating Degree Days 16    
Moisture  
Dew Point 49 °F    
Average Humidity 92    
Maximum Humidity 100    
Minimum Humidity 76    
Precipitation  
Precipitation 0.00 in - - ()
Sea Level Pressure  
Sea Level Pressure 29.94 in    
Wind  
Wind Speed 6 mph (East)    
Max Wind Speed 12 mph    
Max Gust Speed -    
Visibility 3 miles    
Events Fog , Rain    
Averages and records for this station are not official NWS values.
T = Trace of Precipitation, MM = Missing Value Source: NWS Daily Summary

Daily Weather History Graph

Daily Weather History Graph

Search for Another Location

Airport or City:

Trip Planner

Search our weather history database for the weather conditions in past years. The results will help you decide how hot, cold, wet, or windy it might be!

Date:

Astronomy

Oct. 30, 2013 Rise Set
Actual Time 7:33 AM CDT 5:54 PM CDT
Civil Twilight 7:03 AM CDT 6:24 PM CDT
Nautical Twilight 6:30 AM CDT 6:57 PM CDT
Astronomical Twilight 5:57 AM CDT 7:30 PM CDT
Moon 3:15 AM CDT (10/30) 3:45 PM CDT (10/30)
Length of Visible Light 11h 20m
Length of Day
10h 21m
Waning Crescent, 17% of the Moon is Illuminated
Oct 30
Waning Crescent
Nov 3
New
Nov 9
First Quarter
Nov 17
Full
Nov 25
Last Quarter

Hourly Weather History & Observations

Time (CDT) Temp. Windchill Dew Point Humidity Pressure Visibility Wind Dir Wind Speed Gust Speed Precip Events Conditions
12:56 AM 46.9 °F - 39.9 °F 77% 30.11 in 7.0 mi East 6.9 mph - N/A   Overcast
1:45 AM 46.4 °F 44.3 °F 39.2 °F 76% 30.10 in 6.0 mi East 4.6 mph - N/A   Haze
1:56 AM 46.0 °F 43.1 °F 39.9 °F 79% 30.09 in 6.0 mi East 5.8 mph - N/A   Haze
2:35 AM 44.6 °F 41.4 °F 39.2 °F 81% 30.09 in 6.0 mi East 5.8 mph - N/A   Haze
2:56 AM 44.1 °F 40.8 °F 39.0 °F 82% 30.08 in 6.0 mi East 5.8 mph - N/A   Haze
3:20 AM 44.6 °F 42.2 °F 39.2 °F 81% 30.09 in 6.0 mi East 4.6 mph - N/A   Mostly Cloudy
3:56 AM 45.0 °F 42.6 °F 41.0 °F 86% 30.08 in 5.0 mi East 4.6 mph - N/A   Overcast
4:56 AM 48.0 °F - 42.1 °F 80% 30.07 in 6.0 mi East 6.9 mph - N/A   Haze
5:56 AM 48.0 °F - 43.0 °F 83% 30.06 in 5.0 mi East 5.8 mph - N/A   Haze
6:31 AM 48.2 °F - 44.6 °F 87% 30.06 in 4.0 mi East 6.9 mph - N/A   Overcast
6:56 AM 48.0 °F - 45.0 °F 89% 30.05 in 4.0 mi East 5.8 mph - 0.00 in Rain Light Rain
7:18 AM 48.2 °F - 44.6 °F 87% 30.04 in 3.0 mi ESE 6.9 mph - 0.00 in   Overcast
7:37 AM 48.2 °F - 44.6 °F 87% 30.04 in 2.5 mi East 5.8 mph - 0.00 in   Overcast
7:56 AM 48.0 °F - 46.0 °F 93% 30.05 in 2.5 mi ESE 9.2 mph - 0.00 in   Overcast
8:06 AM 48.2 °F - 46.4 °F 93% 30.05 in 1.2 mi East 10.4 mph - N/A   Overcast
8:19 AM 48.2 °F - 46.4 °F 93% 30.05 in 1.0 mi East 9.2 mph - N/A   Overcast
8:56 AM 48.0 °F - 46.9 °F 96% 30.06 in 0.8 mi ESE 9.2 mph - N/A   Overcast
9:34 AM 48.2 °F - 46.4 °F 93% 30.06 in 0.2 mi ESE 8.1 mph - N/A Fog Fog
9:56 AM 48.9 °F - 48.0 °F 97% 30.05 in 0.2 mi East 8.1 mph - N/A Fog Fog
10:09 AM 48.2 °F - 48.2 °F 100% 30.04 in 0.5 mi East 9.2 mph - N/A Fog Fog
10:48 AM 50.0 °F - 48.2 °F 94% 30.01 in 1.0 mi East 11.5 mph - N/A   Overcast
10:56 AM 51.1 °F - 48.9 °F 92% 30.01 in 1.5 mi East 10.4 mph - N/A   Overcast
11:12 AM 51.8 °F - 50.0 °F 94% 30.01 in 2.0 mi East 9.2 mph - N/A   Overcast
11:48 AM 51.8 °F - 50.0 °F 94% 30.01 in 2.5 mi East 8.1 mph - N/A   Overcast
11:56 AM 52.0 °F - 50.0 °F 93% 30.01 in 3.0 mi East 9.2 mph - N/A   Overcast
12:04 PM 51.8 °F - 50.0 °F 94% 30.01 in 2.5 mi East 8.1 mph - 0.00 in Rain Light Rain
12:21 PM 51.8 °F - 51.8 °F 100% 29.99 in 1.2 mi East 6.9 mph - 0.00 in   Overcast
12:39 PM 51.8 °F - 51.8 °F 100% 29.99 in 2.5 mi ESE 6.9 mph - 0.00 in   Overcast
12:56 PM 52.0 °F - 51.1 °F 97% 29.97 in 2.5 mi ESE 8.1 mph - 0.00 in   Overcast
1:27 PM 53.6 °F - 51.8 °F 94% 29.95 in 1.5 mi ESE 5.8 mph - N/A   Overcast
1:56 PM 53.1 °F - 52.0 °F 96% 29.93 in 1.2 mi East 8.1 mph - N/A   Overcast
2:24 PM 53.6 °F - 51.8 °F 94% 29.91 in 2.0 mi East 8.1 mph - N/A   Overcast
2:46 PM 53.6 °F - 51.8 °F 94% 29.86 in 1.8 mi ESE 11.5 mph - N/A   Overcast
2:56 PM 54.0 °F - 53.1 °F 97% 29.89 in 2.0 mi ENE 5.8 mph - N/A   Overcast
3:05 PM 53.6 °F - 53.6 °F 100% 29.90 in 2.5 mi NNE 6.9 mph - N/A   Overcast
3:17 PM 53.6 °F - 53.6 °F 100% 29.87 in 3.0 mi East 8.1 mph - N/A   Overcast
3:56 PM 55.0 °F - 53.1 °F 93% 29.86 in 4.0 mi East 8.1 mph - N/A   Overcast
4:47 PM 55.4 °F - 53.6 °F 94% 29.80 in 4.0 mi East 11.5 mph - N/A   Mostly Cloudy
4:56 PM 55.9 °F - 53.1 °F 90% 29.81 in 4.0 mi East 10.4 mph - N/A   Mostly Cloudy
5:56 PM 55.0 °F - 53.1 °F 93% 29.81 in 5.0 mi East 6.9 mph - N/A   Overcast
6:56 PM 55.0 °F - 53.1 °F 93% 29.80 in 6.0 mi ENE 5.8 mph - N/A   Mostly Cloudy
7:10 PM 53.6 °F - 51.8 °F 94% 29.80 in 5.0 mi East 6.9 mph - N/A   Scattered Clouds
7:56 PM 52.0 °F - 51.1 °F 97% 29.79 in 4.0 mi East 3.5 mph - N/A   Partly Cloudy
8:22 PM 51.8 °F - 50.0 °F 94% 29.79 in 2.5 mi Calm Calm - N/A   Mostly Cloudy
8:56 PM 51.1 °F - 50.0 °F 96% 29.78 in 1.5 mi Calm Calm - N/A   Overcast
9:21 PM 53.6 °F - 51.8 °F 94% 29.77 in 2.5 mi ESE 5.8 mph - N/A   Overcast
9:35 PM 53.6 °F - 51.8 °F 94% 29.77 in 2.5 mi East 4.6 mph - N/A   Overcast
9:56 PM 52.0 °F - 52.0 °F 100% 29.74 in 1.5 mi East 4.6 mph - N/A   Overcast
10:56 PM 53.1 °F - 52.0 °F 96% 29.74 in 1.5 mi Calm Calm - N/A   Overcast
11:12 PM 53.6 °F - 51.8 °F 94% 29.74 in 2.0 mi Calm Calm - N/A   Overcast
11:24 PM 53.6 °F - 51.8 °F 94% 29.73 in 3.0 mi Calm Calm - N/A   Overcast
11:34 PM 53.6 °F - 51.8 °F 94% 29.73 in 2.5 mi Calm Calm - N/A   Overcast
11:41 PM 53.6 °F - 51.8 °F 94% 29.73 in 3.0 mi Calm Calm - N/A   Overcast
11:56 PM 54.0 °F - 53.1 °F 97% 29.70 in 3.0 mi Calm Calm - N/A   Overcast